CW8989 Weather Reports


time (UTC)temp
C
wind
direction
speed
KPH
gust
KPH
rain 1hr
cm
rain 24hr
cm
rain mn
cm
humidity
%
barometer
mb
20260906131541 27 360 0.0 3.2 0.00 0.00 0.00 77 1011.8
20260906124533 24 360 0.0 0.0 0.00 0.00 0.00 86 1011.7
20260906123024 22 360 0.0 0.0 0.00 0.00 0.00 88 1011.8
20260906121550 21 360 0.0 0.0 0.00 0.00 0.00 89 1011.5
20260906120004 21 101 0.0 0.0 0.00 0.00 0.00 90 1011.5
20260906114541 20 93 0.0 0.0 0.00 0.00 0.00 89 1011.4
20260906113024 20 96 0.0 0.0 0.00 0.00 0.00 88 1011.4
20260906111620 20 97 0.0 0.0 0.00 0.00 0.00 89 1011.2
20260906110136 20 100 0.0 0.0 0.00 0.00 0.00 88 1011.2
20260906104606 20 93 0.0 0.0 0.00 0.00 0.00 88 1011.3
20260906104502 20 94 0.0 0.0 0.00 0.00 0.00 88 1011.4
20260906103043 20 92 0.0 0.0 0.00 0.00 0.00 88 1011.1
20260906101519 21 92 0.0 0.0 0.00 0.00 0.00 88 1011.1
20260906100156 21 92 0.0 0.0 0.00 0.00 0.00 88 1011.2
20260906094530 21 92 0.0 1.6 0.00 0.00 0.00 87 1011.0
20260906093015 21 92 0.0 3.2 0.00 0.00 0.00 88 1011.0
20260906091503 21 93 0.0 3.2 0.00 0.00 0.00 87 1010.7
20260906090142 21 91 0.0 0.0 0.00 0.00 0.00 87 1010.7
20260906084608 21 89 0.0 0.0 0.00 0.00 0.00 86 1010.5
20260906084505 21 88 0.0 0.0 0.00 0.00 0.00 86 1010.5
20260906083039 21 89 0.0 0.0 0.00 0.00 0.00 87 1010.4
20260906081549 21 89 0.0 0.0 0.00 0.00 0.00 87 1010.4
20260906074531 21 87 0.0 1.6 0.00 0.00 0.00 86 1010.6
20260906073034 21 87 0.0 0.0 0.00 0.00 0.00 86 1010.5
20260906071555 21 87 0.0 3.2 0.00 0.00 0.00 86 1010.5
20260906070138 21 86 0.0 0.0 0.00 0.00 0.00 85 1010.5
20260906064549 21 86 0.0 0.0 0.00 0.00 0.00 85 1010.6
20260906063029 21 87 0.0 0.0 0.00 0.00 0.00 84 1010.7
20260906061507 21 85 0.0 0.0 0.00 0.00 0.00 84 1010.9
20260906060152 21 86 0.0 0.0 0.00 0.00 0.00 83 1011.2
20260906054539 22 86 0.0 3.2 0.00 0.00 0.00 83 1011.3
20260906053044 22 86 0.0 0.0 0.00 0.00 0.00 83 1011.4
20260906051539 22 84 0.0 4.8 0.00 0.00 0.00 82 1011.5
20260906050141 22 84 0.0 0.0 0.00 0.00 0.00 81 1011.4
20260906044550 22 84 0.0 1.6 0.00 0.00 0.00 82 1011.3
20260906043040 22 84 0.0 0.0 0.00 0.00 0.00 82 1011.7
20260906041506 22 83 0.0 0.0 0.00 0.00 0.00 81 1011.9
20260906040142 22 83 0.0 1.6 0.00 0.00 0.00 81 1011.9
20260906034505 22 84 0.0 0.0 0.00 0.00 0.00 81 1011.9
20260906033046 22 84 0.0 4.8 0.00 0.00 0.00 80 1012.2
20260906031520 23 118 0.0 6.4 0.00 0.00 0.00 77 1012.1
20260906030156 23 122 3.2 11.3 0.00 0.00 0.00 74 1012.1
20260906024513 23 131 6.4 12.9 0.00 0.00 0.00 72 1011.8
20260906023106 25 360 0.0 0.0 0.00 0.00 0.00 69 1011.4
20260906021528 25 360 0.0 4.8 0.00 0.00 0.00 68 1011.2
20260906014540 25 360 0.0 3.2 0.00 0.00 0.00 66 1011.1
20260906013004 26 92 1.6 16.1 0.00 0.00 0.00 64 1011.4
20260906011552 27 105 16.1 25.7 0.00 0.00 0.00 61 1011.5
20260906004539 28 192 0.0 1.6 0.00 0.00 0.00 75 1010.2
20260906003016 28 226 0.0 4.8 0.00 0.00 0.00 73 1009.4
20260906001550 29 266 0.0 6.4 0.00 0.00 0.00 72 1009.5
20260906000128 29 220 0.0 6.4 0.00 0.00 0.00 71 1009.7
20260905234554 30 284 0.0 3.2 0.00 0.00 0.00 69 1010.0
20260905233023 30 248 0.0 4.8 0.00 0.00 0.00 68 1009.9
20260905231511 31 273 0.0 4.8 0.00 0.00 0.00 67 1009.7
20260905230024 31 296 0.0 4.8 0.00 0.00 0.00 66 1009.7
20260905224606 31 233 0.0 8.0 0.00 0.00 0.00 65 1009.7
20260905223038 32 273 0.0 9.7 0.00 0.00 0.00 64 1009.6
20260905221520 32 263 0.0 6.4 0.00 0.00 0.00 63 1009.4
20260905220149 32 296 1.6 11.3 0.00 0.00 0.00 63 1009.6
20260905214521 32 288 1.6 9.7 0.00 0.00 0.00 63 1009.5
20260905213023 32 288 3.2 12.9 0.00 0.00 0.00 63 1009.6
20260905211513 32 236 4.8 14.5 0.00 0.00 0.00 62 1009.8
20260905210153 33 194 4.8 17.7 0.00 0.00 0.00 61 1009.9
20260905204519 33 194 3.2 14.5 0.00 0.00 0.00 60 1009.8
20260905203059 33 251 1.6 8.0 0.00 0.00 0.00 60 1009.8
20260905201536 33 181 3.2 9.7 0.00 0.00 0.00 59 1010.1
20260905194531 36 102 6.4 14.5 0.00 0.00 0.00 47 1010.3
20260905193008 36 101 6.4 12.9 0.00 0.00 0.00 48 1010.4
20260905191546 35 55 1.6 8.0 0.00 0.00 0.00 50 1010.6
20260905190014 35 23 1.6 14.5 0.00 0.00 0.00 49 1010.9
20260905184555 35 90 6.4 11.3 0.00 0.00 0.00 50 1011.1
20260905183019 35 41 3.2 9.7 0.00 0.00 0.00 51 1011.3
20260905181602 35 355 0.0 6.4 0.00 0.00 0.00 52 1011.6
20260905180020 33 346 1.6 9.7 0.00 0.00 0.00 53 1011.9
20260905174551 34 9 3.2 12.9 0.00 0.00 0.00 52 1011.9
20260905173030 35 341 1.6 16.1 0.00 0.00 0.00 52 1012.2
20260905171506 33 28 0.0 8.0 0.00 0.00 0.00 53 1012.4
20260905170142 33 81 3.2 12.9 0.00 0.00 0.00 53 1012.6
20260905164506 33 355 4.8 16.1 0.00 0.00 0.00 53 1012.9
20260905163043 34 355 3.2 14.5 0.00 0.00 0.00 53 1013.1
20260905161520 34 33 6.4 16.1 0.00 0.00 0.00 53 1013.2
20260905160155 34 30 9.7 17.7 0.00 0.00 0.00 53 1013.0
20260905154519 33 34 8.0 16.1 0.00 0.00 0.00 55 1012.8
20260905153100 33 98 4.8 12.9 0.00 0.00 0.00 56 1012.8
20260905151537 33 360 1.6 9.7 0.00 0.00 0.00 57 1012.9
20260905144532 32 360 6.4 12.9 0.00 0.00 0.00 59 1013.1
20260905143018 31 360 0.0 0.0 0.00 0.00 0.00 65 1013.2
20260905141553 31 360 0.0 0.0 0.00 0.00 0.00 64 1013.3
20260905140010 30 36 0.0 0.0 0.00 0.00 0.00 68 1013.4
20260905134539 28 88 0.0 0.0 0.00 0.00 0.00 72 1013.4
20260905133027 27 117 0.0 0.0 0.00 0.00 0.00 76 1013.5